Terminal Aerodrome Forecast
Issued by NWS

Home | Current Version | Previous Version | Text Only | Print | Product List | Glossary On
Versions: 1 2 3 4 5 6 7 8 9 10 11 12 13
000
FTUS45 KFGZ 220532
TAFPGA
TAF
KPGA 220532Z 2206/2306 VRB06KT P6SM SCT090
     FM221900 22006KT P6SM BKN090 PROB30 2219/2301 VRB15G30KT TSRA
      BKN070CB=

USA.gov is the U.S. government's official web portal to all federal, state and local government web resources and services.